星链-31604 (STARLINK-31604 )

导读 | 豆包AI

STARLINK-31604是美国SpaceX星链计划的卫星,于2024年3月11日发射,旨在为全球提供高速互联网服务,尤其覆盖偏远地区。星链卫星通过低轨道运行减少信号延迟,依托大规模组网实现全球连通,支撑偏远通信、航空互联网等多元场景,推动全球互联网普惠化。

基本信息
目录编号:
59214
目录名称:
STARLINK-31604
国际标识:
2024-046P
轨道中心:
EARTH
卫星名称:
星链-31604
卫星全名:
星链-31604 (STARLINK-31604 )
卫星状态:
在轨 (已飞行781 天)
发射日期:
2024-03-11 UTC
国别 :
美国 (US)
星等 :
--
轨道信息
数据来源 国际轨道数据
星历时间: 2026-04-30T22:55:58+0800
9小时前
查看轨道信息
半长轴: 6840.879km
偏心率: 0.0001453
轨道倾角: 53.163°
近地点辐角 71.239°
升交点赤经 273.902°
平近点角 288.877°
近地点: 461.748km
远地点: 463.736km
周期: 93.849分钟
每日圈数: 15.343872
详细信息
固有亮度:
5
最大亮度:
0.3
卫星平台:
Starlink v2.0 mini
覆盖范围:
全球
运营商:
太空探索技术公司
运营商所在国:
美国
制造商(研发单位):
太空探索技术公司
制造商所在国:
美国
使用方式:
暂无
卫星简介
星链(Starlink)计划是由太空探索技术公司(SpaceX)提出的一个巨型低轨卫星互联网星座项目,计划在2019年至2024年间在太空搭建由约1.2万颗卫星组成的“星链”网络,其中1584颗将部署在地球上空550千米处的近地轨道,并从2020年开始工作。该卫星仍在工作。
2D轨道图
3D轨道图
轨道高度分析图
轨道倾角分析图
轨道综合分析图
查看轨道综合分析图